Regional Weather Roundup
Issued by NWS

Home | Current Version | Previous Version | Graphics & Text | Print | Product List | Glossary On
Versions: 1 2 3 4 5 6 7 8 9 10 11 12 13 14 15 16 17 18 19 20 21 22 23 24 25 26 27 28 29 30 31 32 33 34 35 36 37 38 39 40 41 42 43 44 45 46 47 48 49 50
000
ASUS45 KBOU 311007
RWRCO

WEATHER ROUNDUP FOR COLORADO
NATIONAL WEATHER SERVICE DENVER/BOULDER CO
400 AM MDT THU JUL 31 2014

NOTE: "FAIR" INDICATES FEW OR NO CLOUDS BELOW 12000 FEET WITH NO
SIGNIFICANT WEATHER AND/OR OBSTRUCTIONS TO VISIBILITY.

COZ001>005-013-030-031-311100-
...NORTHWEST COLORADO...

CITY           SKY/WX    TMP DP  RH WIND       PRES   REMARKS
CRAIG          CLOUDY    52  52 100 N3        30.30F
HAYDEN         MOCLDY    54  48  82 CALM      30.32S
MEEKER         MOCLDY    54  52  93 NE5       30.31S
MOUNT WERNER   NOT AVBL
STEAMBOAT SPGS CLOUDY    51  49  95 CALM      30.34S
WALDEN         CLOUDY    50  45  81 N5        30.41F
$$

COZ006>008-011-311100-
...WEST CENTRAL VALLEYS...

CITY           SKY/WX    TMP DP  RH WIND       PRES   REMARKS
GRAND JUNCTION CLEAR     62  57  83 CALM      30.18S
MONTROSE       CLEAR     61  53  75 SE6       30.26S
EAGLE          CLOUDY    55  55 100 NE7       30.33F
RIFLE          CLEAR     58  55  90 SE3       30.24S
DELTA          CLEAR     64  55  73 CALM      30.21S
NUCLA          CLEAR     63  52  67 NE5       30.28R
$$

COZ017>023-064>068-311100-
...SOUTHWEST COLORADO...

CITY           SKY/WX    TMP DP  RH WIND       PRES   REMARKS
DURANGO        CLEAR     55  48  77 E7        30.27R
CORTEZ         CLEAR     56  50  80 E3        30.22S
PAGOSA SPRINGS PTCLDY    51  47  86 CALM      30.36S
TELLURIDE      MOCLDY    52  48  87 E7        30.45S
WOLF CREEK PAS NOT AVBL
$$

COZ009-010-012-014-032>034-037-058>063-311100-
...CENTRAL COLORADO...

CITY           SKY/WX    TMP DP  RH WIND       PRES   REMARKS
ASPEN          CLEAR     50  48  93 SW5       30.37R
BUENA VISTA    CLOUDY    52  51  96 SE3       30.42S
COPPER MTN     MOCLDY    46  41  81 SW3       30.62S
BERTHOUD PASS  CLOUDY    37  37 100 NW3       30.66S
COTTONWOOD PAS FOG       50  48  93 CALM      30.51S VSB 3/4
GUNNISON       PTCLDY    54  46  76 N5        30.39S
KREMMLING      CLOUDY    54  50  87 CALM      30.38S
LEADVILLE      CLOUDY    46  45  96 S3        30.49F
MONARCH PASS   FOG       43  43 100 SW14      30.73S VSB<1/4
SALIDA         NOT AVBL
SUNLIGHT       PTCLDY    50  46  87 CALM      30.56F
WILKERSON PASS FOG       43  41  93 SW10      30.59F VSB 3/4
$$

COZ069>075-311100-
...SAN LUIS VALLEY/SANGRE DE CRISTO MOUNTAINS...

CITY           SKY/WX    TMP DP  RH WIND       PRES   REMARKS
ALAMOSA        CLOUDY    54  52  93 S8        30.38R
LA VETA PASS   FOG       45  45 100 CALM      30.52F VSB 1/2
SAGUACHE       CLOUDY    55  52  88 SE7       30.40F
$$

COZ035-036-038>040-311100-
...NORTHERN COLORADO FRONT RANGE...

CITY           SKY/WX    TMP DP  RH WIND       PRES   REMARKS
DENVER INTL AP CLOUDY    58  56  93 E7        30.28F
DMNS CITY PARK   N/A     57  56  97 NE2       30.27S
AURORA         MOCLDY    57  56  95 S5        30.30S
FRONT RANGE AP CLOUDY    59  57  94 E5        30.30S
ERIE MUNI ARPT CLOUDY    58  57  97 CALM      30.28S
BOULDER MUN AP CLOUDY    55  55 100 CALM      30.28S
CENTENNIAL     CLOUDY    56  53  90 S3        30.29F
BROOMFIELD     CLOUDY    57  57 100 CALM      30.30S
FORT COLLINS   CLOUDY    59  57  94 CALM      30.29S
LONGMONT       CLOUDY    58  57  95 CALM      30.29S
$$

COZ041-046-047-076>085-087-088-311100-
...PIKES PEAK/PALMER DIVIDE AND SOUTHERN FOOTHILLS...

CITY           SKY/WX    TMP DP  RH WIND       PRES   REMARKS
COLO. SPRINGS  CLOUDY    56  54  93 SE7       30.34F FOG
A. F. ACADEMY  CLOUDY    54  54 100 S3        30.35F
ELLICOTT       CLOUDY    56  55  97 SW7       30.33F
FALCON         CLOUDY    53  53  98 SW3       30.37F FOG
FORT CARSON    MOCLDY    55  55 100 S5        30.33F
LIMON          CLOUDY    57  54  89 S3        30.30F
MONUMENT HILL  CLOUDY    52  50  93 S7        30.35F
TRINIDAD       CLOUDY    57  55  93 CALM      30.33R
$$

COZ042>045-048>051-090-091-311100-
...NORTHEAST COLORADO...

CITY           SKY/WX    TMP DP  RH WIND       PRES   REMARKS
GREELEY ARPT   NOT AVBL
AKRON          MOCLDY    58  56  93 SW7       30.26F
BURLINGTON     MOCLDY    55  53  93 W5        30.26F
WRAY             N/A    N/A N/A N/A SW5       30.22F
STERLING       MOCLDY    61  61 100 CALM      30.23S
HOLYOKE        CLOUDY    59  55  88 SW3       30.21S
FORT MORGAN    CLOUDY    58  57  96 S3        30.26F
$$

COZ086-089-092>099-311100-
...SOUTHEAST COLORADO...

CITY           SKY/WX    TMP DP  RH WIND       PRES   REMARKS
PUEBLO         MOCLDY    60  59  96 E3        30.28S
LA JUNTA       PTCLDY    60  58  92 CALM      30.26F
LAMAR          CLOUDY    58  56  93 SW5       30.23F
SPRINGFIELD      N/A     53  52  96 NW6       30.27F
$$



USA.gov is the U.S. government's official web portal to all federal, state and local government web resources and services.